When you browse on this site, cookies collect data to enhance your experience and personalize the content and advertising you see.
Visit our Privacy Policy to learn more. By continuing to use the site, you agree to this use of cookies and data.
  • In Hungary
  • List of Countries
  • For 7 days
  • Water Temperature
  • Weather Map
  • News
  • Weather Widgets
  • user-avatar
    Login

    Hourly Weather Malynivka

    Today, 22 November, Friday

    Time Temperature Precipitation Wind Pressure Humidity
    00:00 -11°C° 0 mm 6 mps 769 mmHg 29%
    01:00 -11°C° 0 mm 6 mps 769 mmHg 30%
    02:00 -11°C° 0 mm 6 mps 769 mmHg 30%
    03:00 -11°C° 0 mm 6 mps 769 mmHg 33%
    04:00 -12°C° 0 mm 6 mps 769 mmHg 35%
    05:00 -12°C° 0 mm 6 mps 769 mmHg 38%
    06:00 -13°C° 0 mm 7 mps 769 mmHg 41%
    07:00 -13°C° 0 mm 7 mps 769 mmHg 43%
    08:00 -13°C° 0 mm 7 mps 770 mmHg 44%
    09:00 -12°C° 0 mm 7 mps 769 mmHg 40%
    10:00 -11°C° 0 mm 7 mps 769 mmHg 37%
    11:00 -9°C° 0 mm 7 mps 769 mmHg 34%
    12:00 -8°C° 0 mm 7 mps 768 mmHg 32%
    13:00 -7°C° 0 mm 7 mps 768 mmHg 30%
    14:00 -6°C° 0 mm 7 mps 767 mmHg 28%
    15:00 -7°C° 0 mm 7 mps 767 mmHg 31%
    16:00 -8°C° 0 mm 6 mps 767 mmHg 34%
    17:00 -8°C° 0 mm 5 mps 767 mmHg 36%
    18:00 -8°C° 0 mm 5 mps 767 mmHg 37%
    19:00 -9°C° 0 mm 6 mps 767 mmHg 37%
    20:00 -10°C° 0 mm 6 mps 767 mmHg 38%
    21:00 -10°C° 0 mm 6 mps 767 mmHg 38%
    22:00 -10°C° 0 mm 6 mps 767 mmHg 39%
    23:00 -10°C° 0 mm 5 mps 767 mmHg 40%

    Tomorrow, 23 November, Saturday

    Time Temperature Precipitation Wind Pressure Humidity
    00:00 -11°C° 0 mm 5 mps 767 mmHg 40%
    01:00 -11°C° 0 mm 5 mps 767 mmHg 40%
    02:00 -11°C° 0 mm 5 mps 767 mmHg 40%
    03:00 -11°C° 0 mm 5 mps 766 mmHg 40%
    04:00 -11°C° 0 mm 5 mps 766 mmHg 41%
    05:00 -12°C° 0 mm 5 mps 766 mmHg 41%
    06:00 -12°C° 0 mm 5 mps 766 mmHg 42%
    07:00 -12°C° 0 mm 5 mps 766 mmHg 42%
    08:00 -12°C° 0 mm 5 mps 766 mmHg 43%
    09:00 -10°C° 0 mm 5 mps 766 mmHg 39%
    10:00 -9°C° 0 mm 6 mps 765 mmHg 35%
    11:00 -6°C° 0 mm 6 mps 765 mmHg 30%
    12:00 -6°C° 0 mm 6 mps 765 mmHg 29%
    13:00 -5°C° 0 mm 6 mps 764 mmHg 27%
    14:00 -4°C° 0 mm 6 mps 764 mmHg 25%
    15:00 -5°C° 0 mm 6 mps 764 mmHg 28%
    16:00 -6°C° 0 mm 5 mps 763 mmHg 30%
    17:00 -7°C° 0 mm 4 mps 763 mmHg 33%
    18:00 -7°C° 0 mm 5 mps 763 mmHg 33%
    19:00 -7°C° 0 mm 5 mps 763 mmHg 33%
    20:00 -7°C° 0 mm 5 mps 764 mmHg 33%
    21:00 -8°C° 0 mm 5 mps 763 mmHg 34%
    22:00 -8°C° 0 mm 5 mps 763 mmHg 34%
    23:00 -8°C° 0 mm 4 mps 763 mmHg 35%

    Day after tomorrow, 24 November, Sunday

    Time Temperature Precipitation Wind Pressure Humidity
    00:00 -8°C° 0 mm 4 mps 763 mmHg 36%
    01:00 -9°C° 0 mm 4 mps 763 mmHg 37%
    02:00 -9°C° 0 mm 4 mps 763 mmHg 38%
    03:00 -9°C° 0 mm 4 mps 763 mmHg 39%
    04:00 -9°C° 0 mm 4 mps 763 mmHg 40%
    05:00 -9°C° 0 mm 4 mps 762 mmHg 40%
    06:00 -9°C° 0 mm 4 mps 762 mmHg 41%
    07:00 -10°C° 0 mm 5 mps 763 mmHg 41%
    08:00 -10°C° 0 mm 5 mps 763 mmHg 41%
    09:00 -8°C° 0 mm 5 mps 763 mmHg 39%
    10:00 -6°C° 0 mm 5 mps 762 mmHg 37%
    11:00 -5°C° 0 mm 5 mps 762 mmHg 35%
    12:00 -4°C° 0 mm 5 mps 762 mmHg 34%
    13:00 -2°C° 0 mm 5 mps 761 mmHg 34%
    14:00 -2°C° 0 mm 5 mps 761 mmHg 34%
    15:00 -4°C° 0 mm 5 mps 761 mmHg 38%
    16:00 -4°C° 0 mm 4 mps 761 mmHg 42%
    17:00 -5°C° 0 mm 4 mps 761 mmHg 45%
    18:00 -5°C° 0 mm 4 mps 761 mmHg 45%
    19:00 -5°C° 0 mm 4 mps 761 mmHg 45%
    20:00 -6°C° 0 mm 5 mps 761 mmHg 44%
    21:00 -7°C° 0 mm 5 mps 761 mmHg 46%
    22:00 -7°C° 0 mm 4 mps 760 mmHg 47%
    23:00 -7°C° 0 mm 4 mps 760 mmHg 48%

    25 November, Monday

    Time Temperature Precipitation Wind Pressure Humidity
    00:00 -7°C° 0 mm 4 mps 760 mmHg 49%
    01:00 -7°C° 0 mm 4 mps 760 mmHg 50%
    02:00 -8°C° 0 mm 4 mps 760 mmHg 51%
    03:00 -8°C° 0 mm 4 mps 760 mmHg 54%
    04:00 -8°C° 0 mm 4 mps 759 mmHg 56%
    05:00 -8°C° 0 mm 4 mps 759 mmHg 59%
    06:00 -8°C° 0 mm 4 mps 759 mmHg 62%
    07:00 -8°C° 0 mm 4 mps 759 mmHg 66%
    08:00 -8°C° 0 mm 4 mps 759 mmHg 69%
    09:00 -7°C° 0 mm 4 mps 759 mmHg 67%
    10:00 -5°C° 0 mm 4 mps 759 mmHg 64%
    11:00 -4°C° 0 mm 5 mps 759 mmHg 62%
    12:00 -3°C° 0 mm 4 mps 758 mmHg 62%
    13:00 -2°C° 0 mm 4 mps 758 mmHg 62%
    14:00 -1°C° 0 mm 4 mps 757 mmHg 61%
    15:00 -1°C° 0 mm 3 mps 757 mmHg 67%
    16:00 -2°C° 0 mm 3 mps 757 mmHg 73%
    17:00 -3°C° 0 mm 2 mps 757 mmHg 78%
    18:00 -4°C° 0 mm 3 mps 757 mmHg 81%
    19:00 -4°C° 0 mm 3 mps 757 mmHg 83%
    20:00 -5°C° 0 mm 3 mps 757 mmHg 86%
    21:00 -5°C° 0 mm 3 mps 757 mmHg 86%
    22:00 -5°C° 0 mm 3 mps 757 mmHg 86%
    23:00 -5°C° 0 mm 3 mps 756 mmHg 86%

    26 November, Tuesday

    Time Temperature Precipitation Wind Pressure Humidity
    00:00 -4°C° 0 mm 3 mps 756 mmHg 83%
    01:00 -4°C° 0 mm 4 mps 756 mmHg 81%
    02:00 -4°C° 0 mm 4 mps 756 mmHg 78%
    03:00 -4°C° 0 mm 4 mps 756 mmHg 77%
    04:00 -4°C° 0 mm 4 mps 756 mmHg 76%
    05:00 -4°C° 0 mm 4 mps 755 mmHg 74%
    06:00 -4°C° 0 mm 4 mps 755 mmHg 74%
    07:00 -4°C° 0 mm 4 mps 755 mmHg 73%
    08:00 -4°C° 0 mm 4 mps 755 mmHg 73%
    09:00 -4°C° 0 mm 4 mps 755 mmHg 71%
    10:00 -3°C° 0 mm 4 mps 755 mmHg 69%
    11:00 -2°C° 0 mm 3 mps 755 mmHg 67%
    12:00 -1°C° 0 mm 3 mps 755 mmHg 66%
    13:00 -1°C° 0 mm 3 mps 754 mmHg 66%
    14:00 0°C° 0 mm 3 mps 754 mmHg 66%
    15:00 -1°C° 0 mm 3 mps 754 mmHg 71%
    16:00 -2°C° 0 mm 3 mps 754 mmHg 76%
    17:00 -2°C° 0 mm 3 mps 754 mmHg 80%
    18:00 -2°C° 0 mm 2 mps 754 mmHg 84%
    19:00 -2°C° 0 mm 2 mps 754 mmHg 87%
    20:00 -2°C° 0 mm 2 mps 753 mmHg 90%
    21:00 -1°C° 0 mm 2 mps 753 mmHg 90%
    22:00 -1°C° 0 mm 2 mps 753 mmHg 91%
    23:00 -1°C° 0 mm 2 mps 753 mmHg 91%

    27 November, Wednesday

    Time Temperature Precipitation Wind Pressure Humidity
    00:00 -1°C° 0 mm 2 mps 753 mmHg 92%
    01:00 -1°C° 0 mm 2 mps 753 mmHg 92%
    02:00 -1°C° 0 mm 2 mps 753 mmHg 92%
    03:00 -1°C° 0 mm 2 mps 752 mmHg 93%
    04:00 -1°C° 0 mm 2 mps 752 mmHg 94%
    05:00 -1°C° 0 mm 2 mps 752 mmHg 94%
    06:00 -1°C° 0 mm 2 mps 752 mmHg 94%
    07:00 -1°C° 0 mm 2 mps 752 mmHg 93%
    08:00 -1°C° 0 mm 2 mps 752 mmHg 92%
    09:00 -1°C° 0 mm 2 mps 752 mmHg 89%
    10:00 +1°C° 0 mm 2 mps 752 mmHg 85%
    11:00 +1°C° 0 mm 2 mps 752 mmHg 81%
    12:00 +1°C° 0 mm 2 mps 752 mmHg 81%
    13:00 +2°C° 0 mm 2 mps 751 mmHg 80%
    14:00 +3°C° 0 mm 1 mps 751 mmHg 79%
    15:00 +2°C° 0 mm 2 mps 751 mmHg 81%
    16:00 +2°C° 0 mm 2 mps 752 mmHg 82%
    17:00 +1°C° 0 mm 2 mps 752 mmHg 84%
    18:00 +2°C° 0 mm 1 mps 752 mmHg 84%
    19:00 +2°C° 0 mm 1 mps 752 mmHg 85%
    20:00 +3°C° 0 mm 1 mps 752 mmHg 86%
    21:00 +3°C° 0 mm 1 mps 752 mmHg 86%
    22:00 +3°C° 0 mm 1 mps 752 mmHg 87%
    23:00 +3°C° 0 mm 1 mps 752 mmHg 87%
    Show more